Weather in Stepanenki

Russia / Udmurt Republic     58°13′52″N   53°33′34″E
В апреле 2022 года жителям России запретили посещать сайт meteo.paraplan.net по решению Генеральной прокуратуры. Аудитория сайта уменьшилась в 10 раз. Владельцы сайта не видят смысла в поддержке погодного сервера в таких условиях. Сайт будет закрыт в октябре.
temp.,
°C
wind,
m/s
gust,
m/s
humid.,
%
clouds,
%
prec.,
mm/h
press.,
hPa
HPBL,
m
30 september, fri
fri3001:000ese41282100 0.0 1024527
04:000ese41088100 0.3 1025445
07:00−1ese4991100 0.6 1026337
10:00−1ese3892100 0.8 1028321
13:000ese3893100 0.1 1029321
16:00+1ese3993100 0.1 1029311
19:00+1se3995100 0.0 1029292
22:00+2se3995100 0.0 1029310
1 october, sat
sat101:00+3sse3995100 0.0 1029311
04:00+2sse3996100 0.0 1029312
07:00+2sse3995100 0.0 1029319
10:00+5sse4883100 0.0 1027385
13:00+8sse467374 0.0 1026671
16:00+9sse387495 0.0 1025735
19:00+5sse31094100 0.0 1025254
22:00+4sse31194100 0.0 1023281
2 october, sun
sun201:00+4sse31095100 0.0 1022241
04:00+4sse4129095 0.0 1021300
07:00+4sse41385100 0.0 1020351
10:00+8sse5127298 0.0 1018391
13:00+11s5106589 0.0 1017560
16:00+12sse6146830 0.0 1015723
19:00+12s61570100 0.1 1014848
22:00+11s51480100 2.3 1013729
3 october, mon
mon301:00+11s51486100 0.3 1013659
04:00+11s41295100 1.8 1013592
07:00+11s41198100 1.1 1014528
10:00+12s41095100 1.1 1016513
13:00+13s498499 0.1 1017551
16:00+14s41083100 0.1 1017614
19:00+11s4118893 0.1 1019416
22:00+10s3138797 0.1 1020344
4 october, tue
tue401:00+9s31386100 0.0 1021342
04:00+9s3138396 0.0 1022341
07:00+8s4137896 0.0 1024345
10:00+12s41456100 0.0 1025553
13:00+15s5134432 0.0 1025860
16:00+15s5114659 0.0 10261031
19:00+11s4145992 0.0 1027597
22:00+9s41365100 0.0 1028448